SCP
1 2 4 3 2 1 1 1 2 2 3 3 3 3 3 2 2 2 1 1 1 1 1 1 1 1 1 1 1 1 1 1 1 1 1 1 1 1 1 1 1 1 0
1 2 2 2 2 1 1 1 2 2 3 3 3 3 2 2 2 2 1 1 1 1 1 1 1 1 1 1 1 1 2 1 1 1 1 1 1 1 1 1 1 1 1
1 1 1 1 1 1 1 1 2 2 2 3 3 2 2 2 2 2 2 2 2 1 1 1 1 1 1 1 1 1 2 1 1 1 1 1 1 1 1 1 1 1 1
1 1 1 1 1 1 1 1 2 2 2 2 2 2 2 2 2 2 3 3 3 2 2 1 1 1 1 1 1 1 2 1 1 1 1 1 1 1 1 1 1 1 1
1 1 1 1 1 1 1 2 2 2 2 2 2 2 2 2 2 2 3 3 3 2 2 1 1 1 1 1 1 1 1 1 1 1 1 0 1 1 1 1 1 1 1
1 1 1 1 1 1 1 2 2 3 2 2 2 2 2 2 2 2 2 2 2 2 2 2 1 1 1 1 1 1 1 1 1 1 1 1 1 1 1 1 1 1 1
1 1 1 1 1 1 1 2 2 2 2 2 2 2 2 2 2 2 2 2 2 2 2 2 1 1 1 1 1 1 1 1 1 1 1 1 1 1 1 1 1 1 1
2 1 1 1 2 2 2 2 2 2 2 2 2 2 2 2 2 3 3 2 2 1 2 2 2 1 1 1 1 1 1 1 1 1 0 1 1 1 1 1 1 1 1
2 2 1 1 1 2 2 3 3 3 3 3 3 3 3 3 3 3 3 2 2 1 2 2 2 2 2 2 1 1 1 1 1 0 0 1 1 1 1 1 1 1 1
2 2 1 1 1 2 2 3 3 3 3 3 3 3 3 3 3 4 3 2 1 1 2 2 3 3 3 3 2 2 1 1 1 1 1 1 1 1 1 1 1 1 1
2 2 2 1 1 2 2 2 3 3 3 3 2 2 3 3 3 3 2 2 1 1 1 2 3 3 3 3 3 2 2 1 1 1 1 2 2 1 1 1 1 1 1
2 2 2 2 2 2 3 3 3 3 3 2 2 2 2 2 2 2 2 2 1 1 2 2 3 3 3 3 2 2 2 1 1 1 2 2 2 2 1 1 1 1 1
2 2 2 2 2 3 4 4 4 3 2 2 2 1 2 2 2 2 2 2 2 1 1 2 2 2 2 2 2 2 2 1 1 1 2 2 2 2 1 1 1 1 1
2 2 2 2 3 4 6 6 5 4 3 2 2 1 2 2 2 2 2 2 2 1 1 2 2 2 1 1 2 2 2 2 1 1 1 2 2 1 1 1 1 1 1
3 2 2 3 4 6 8 8 7 5 3 3 2 2 1 1 2 2 3 2 2 1 1 1 1 1 1 1 1 2 2 2 1 1 1 1 1 1 1 1 1 1 1
3 3 2 3 4 7 8 8 6 4 3 3 2 2 1 1 1 2 2 2 2 1 1 1 1 1 2 2 2 2 2 1 1 1 1 1 1 1 2 2 2 2 1
3 3 3 3 5 7 7 6 4 3 2 3 3 2 1 1 1 2 2 2 2 1 1 1 1 1 2 2 2 2 2 1 1 1 1 1 1 1 2 2 2 2 2
4 4 3 4 5 7 6 4 3 2 3 3 3 2 2 1 1 1 1 1 1 1 1 1 1 1 1 2 2 1 1 1 1 1 1 1 1 1 2 2 2 2 3
5 5 4 5 7 7 6 4 3 3 3 3 2 2 2 2 1 1 1 1 1 1 1 1 1 1 1 1 1 1 1 1 1 1 2 2 1 1 2 2 2 2 2
6 5 5 6 7 7 5 4 3 3 4 3 2 2 2 2 2 2 1 1 1 1 1 1 1 1 1 1 1 1 1 1 1 1 2 2 2 2 2 2 3 2 2
6 5 5 5 6 6 5 4 3 3 3 3 3 2 2 2 2 2 2 2 1 1 2 2 2 2 1 1 1 1 1 1 1 2 2 2 2 2 2 3 3 3 3
6 5 5 5 5 5 4 4 4 4 4 4 3 3 3 3 3 3 3 3 2 2 2 3 3 2 2 2 2 2 2 2 2 2 2 2 2 2 2 2 3 4 4
6 5 5 5 6 6 5 4 4 4 4 4 4 4 4 5 4 4 4 4 3 3 4 4 4 4 4 3 3 3 3 3 3 2 2 2 2 2 2 2 3 4 4
4 5 5 6 7 7 7 6 5 5 5 4 4 4 6 6 6 5 5 5 5 5 5 6 7 8 7 6 5 5 5 5 4 3 3 3 3 3 3 3 3 4 4
5 5 6 7 8 8 8 8 7 6 6 4 4 5 7 7 6 6 5 6 7 7 8 9 11 12 11 8 7 7 6 6 5 5 4 4 4 4 3 3 3 4 4
7 7 7 8 8 8 8 8 8 7 7 5 5 6 7 7 6 6 5 6 8 9 10 12 14 14 12 9 8 7 7 7 6 6 5 5 6 5 4 4 4 4 4
Wind_Speed
10 11 12 13 12 12 12 12 12 12 11 11 11 11 10 10 10 9 9 9 10 10 10 10 9 8 7 7 7 7 7 7 8 8 7 7 6 6 5 6 7 7 10
13 12 12 12 12 12 12 12 11 11 11 11 10 10 10 9 9 9 8 8 10 10 10 9 8 8 7 7 7 7 7 7 7 7 7 6 6 6 5 5 6 6 9
14 13 11 11 12 12 12 12 11 11 11 11 10 10 9 9 8 8 7 9 10 9 9 8 8 8 7 7 7 7 7 6 6 6 6 4 5 6 6 6 8 9 8
14 12 12 12 12 12 12 11 11 11 10 10 10 10 9 8 8 8 8 9 9 8 8 7 7 7 7 7 6 6 6 6 6 6 4 4 4 7 7 7 8 8 8
13 12 12 13 13 12 12 11 11 10 10 10 9 9 8 8 8 8 8 8 8 8 7 7 6 6 6 6 6 5 5 5 6 6 3 3 4 8 9 8 8 7 7
13 13 13 13 13 13 12 11 11 10 10 9 8 8 8 7 7 8 8 7 7 7 7 7 6 6 6 6 6 5 5 5 5 4 4 5 5 8 9 9 8 7 7
13 13 14 14 14 13 13 12 11 10 9 8 7 7 7 7 7 8 7 7 6 6 6 5 6 6 6 5 5 5 6 5 4 3 4 5 6 9 9 8 7 7 7
12 14 14 15 15 14 13 12 11 10 8 8 7 7 6 7 7 7 6 6 6 5 5 5 5 5 5 5 5 5 5 5 4 4 5 6 8 9 9 9 8 7 7
12 13 13 13 13 14 13 12 11 10 8 7 7 7 6 7 6 6 6 6 5 5 5 5 5 5 5 5 6 6 6 5 3 2 6 5 9 9 9 8 8 7 7
11 11 11 11 10 10 11 12 11 10 9 7 7 7 6 6 6 6 6 6 5 5 5 5 5 5 5 5 6 6 6 5 4 3 4 6 10 9 8 8 7 7 7
9 9 9 10 9 8 9 11 10 10 8 7 6 6 5 4 5 5 6 7 6 6 6 5 5 5 5 6 7 7 5 3 3 3 4 8 10 9 8 8 8 8 8
7 7 7 8 8 7 7 7 5 5 6 4 4 4 3 2 2 3 6 6 6 6 6 6 6 5 5 4 6 7 3 3 2 4 5 11 10 10 9 8 8 8 8
7 5 6 7 6 6 5 5 3 3 4 4 3 3 2 1 2 2 2 3 4 6 4 5 5 3 3 2 2 3 3 1 1 3 6 11 10 10 9 8 7 8 8
8 7 5 6 5 5 4 3 3 3 3 3 3 2 2 1 1 1 1 1 1 2 2 2 2 2 1 1 1 2 2 1 2 3 5 11 10 10 9 8 8 8 8
8 7 6 7 6 5 4 1 3 2 3 3 3 1 1 1 1 1 1 0 0 1 2 2 2 2 2 1 1 2 2 1 2 3 4 10 10 10 10 9 8 8 7
8 7 7 7 7 5 3 1 1 2 3 3 2 2 1 1 2 1 1 1 1 0 1 1 1 1 1 1 1 1 1 1 2 3 4 6 9 10 10 9 9 8 7
8 7 7 6 7 5 4 3 2 2 3 2 2 3 2 2 2 1 1 1 1 1 1 1 1 1 2 2 1 1 1 1 1 3 3 3 5 8 9 9 8 8 7
9 7 6 6 7 5 3 2 2 1 2 2 2 2 2 1 1 0 1 0 0 0 0 1 1 0 1 1 1 1 1 1 2 2 3 3 4 4 7 9 8 7 7
9 8 6 5 6 5 4 2 2 2 2 2 1 2 2 1 1 1 1 1 0 0 0 0 1 0 1 1 0 1 1 1 2 2 3 3 3 4 4 7 8 7 7
10 8 7 6 5 4 3 2 2 2 2 2 2 1 2 1 1 0 1 0 0 0 1 1 1 0 1 1 1 0 1 1 1 1 2 2 3 4 5 6 5 5 7
10 9 7 6 5 3 2 2 3 2 2 2 2 2 1 1 1 1 1 1 0 0 0 0 0 0 0 0 0 1 1 1 1 1 2 2 2 2 3 5 4 3 4
11 9 8 7 6 4 3 2 2 2 2 2 2 2 2 1 0 1 1 0 0 0 1 0 1 1 1 1 1 0 0 1 1 1 1 2 2 2 2 3 3 3 3
11 10 8 7 6 5 4 3 2 2 1 2 2 2 1 1 1 0 1 0 0 0 1 1 1 0 1 0 1 0 0 0 1 1 0 1 2 2 2 2 3 3 3
11 10 8 8 7 6 4 3 3 3 2 2 2 3 2 1 1 1 1 1 0 1 1 0 1 0 0 1 0 0 1 1 0 1 1 0 1 2 2 2 2 2 3
11 11 9 7 6 6 4 4 2 2 2 2 2 2 2 2 1 1 2 1 1 1 1 0 1 0 0 0 1 0 0 1 1 1 1 1 1 1 2 2 2 2 3
10 10 10 8 6 5 5 4 3 2 1 2 2 2 2 2 2 2 2 1 1 1 1 1 1 1 0 1 1 1 0 0 1 1 1 1 1 1 1 2 2 3 3
Wind_Direction
99 107 109 107 105 105 105 104 104 103 103 102 100 98 99 100 101 104 110 117 121 125 129 131 135 136 133 127 124 119 120 123 127 130 125 125 126 122 124 135 137 120 122
110 112 110 108 108 109 110 108 106 105 104 103 103 102 100 100 103 107 114 124 128 127 131 136 138 139 135 132 134 132 131 132 137 140 138 135 134 129 129 130 120 121 126
112 117 114 110 111 111 111 112 112 109 106 104 104 103 101 102 104 107 107 120 129 129 130 134 137 138 137 142 142 140 143 143 148 158 161 152 144 143 136 127 126 132 131
115 119 116 118 115 114 114 116 115 113 110 108 106 104 103 103 106 108 108 112 120 123 124 129 135 136 136 142 145 147 154 162 172 186 192 163 149 146 147 140 137 140 140
112 114 117 122 120 119 119 119 117 115 112 109 107 106 104 105 108 110 110 115 119 122 125 127 131 135 140 148 156 163 168 180 192 211 183 126 124 148 153 150 149 150 149
113 116 122 125 124 124 123 123 119 117 116 115 111 110 109 108 111 113 110 112 116 122 127 131 136 141 148 160 170 180 190 201 214 205 147 133 131 151 153 154 157 158 159
113 118 128 129 129 129 127 125 123 121 121 122 121 119 119 116 116 120 118 120 121 126 131 138 145 151 155 168 184 198 207 220 232 190 138 131 135 146 152 158 159 164 166
110 118 127 134 133 134 132 129 128 126 127 130 131 130 127 127 127 131 131 129 131 135 139 144 151 161 168 178 193 206 215 233 221 152 132 124 138 148 156 161 163 168 173
108 117 130 138 138 139 137 134 134 134 135 135 139 140 138 139 137 137 139 140 143 146 153 158 163 174 181 192 204 215 227 237 258 179 142 133 147 153 156 161 166 171 174
110 116 125 131 136 141 141 144 146 144 144 143 144 152 151 149 150 153 154 151 158 163 166 168 180 189 197 205 213 218 230 243 235 174 128 142 154 159 162 167 173 176 177
115 122 128 128 136 138 139 142 151 151 150 153 154 160 162 170 162 162 149 157 172 178 179 183 194 200 207 215 217 220 228 229 208 129 125 147 158 161 165 173 180 182 182
116 120 123 129 135 137 132 136 154 154 146 156 138 153 172 171 145 130 142 169 179 182 185 196 204 206 215 212 209 210 225 214 186 132 137 150 160 165 169 176 179 183 187
123 116 119 121 120 120 117 138 149 139 141 150 137 148 151 144 134 123 151 166 176 181 189 185 200 212 205 193 184 187 201 200 147 132 143 155 163 172 176 178 181 187 192
132 129 118 112 102 97 103 119 128 125 139 135 130 128 123 112 95 88 90 138 165 163 154 166 170 176 174 159 184 177 155 174 117 120 149 162 169 176 179 180 183 191 192
133 131 115 104 97 92 89 108 120 120 124 118 125 137 120 122 97 98 97 124 216 144 156 169 156 155 150 165 196 148 136 170 148 143 150 168 172 175 175 180 185 190 192
134 127 115 118 113 114 119 123 124 125 110 112 126 117 113 93 77 72 56 39 355 80 105 125 137 140 144 142 184 151 158 181 162 150 149 167 174 176 179 182 187 192 198
134 129 128 132 126 132 138 156 130 127 127 129 122 108 102 90 91 106 103 74 348 11 93 129 141 166 161 162 163 173 182 195 178 160 163 163 168 179 181 183 188 191 197
131 131 140 141 135 138 131 141 125 116 114 118 114 109 106 104 97 111 90 91 27 5 49 118 131 176 141 135 144 197 184 179 176 179 170 167 162 167 179 182 186 187 192
133 133 134 122 129 136 140 145 128 115 103 104 101 102 122 119 105 99 83 44 307 346 63 167 108 82 95 106 184 210 192 177 183 192 163 168 162 157 159 172 182 184 192
135 136 137 133 130 138 141 146 137 129 138 126 113 96 108 126 122 138 136 88 339 17 37 52 96 148 197 208 235 231 210 192 182 182 168 162 160 169 167 164 172 187 193
142 144 147 141 142 149 146 162 158 164 154 134 136 128 128 134 139 131 1 116 6 77 56 61 106 118 247 128 82 356 300 215 161 141 138 152 165 161 152 149 159 168 182
150 150 150 150 152 159 157 170 166 158 152 139 126 125 135 154 146 137 104 349 44 67 43 50 74 29 328 39 84 324 327 356 16 139 171 165 162 140 142 159 158 156 164
155 160 160 157 155 163 164 168 150 141 143 139 140 132 153 146 136 35 105 49 3 150 121 150 113 172 262 312 69 62 66 48 332 319 250 139 150 149 165 157 143 150 152
157 157 154 155 157 159 172 174 175 162 161 158 148 143 148 149 160 138 117 103 49 45 91 209 148 207 228 312 357 9 71 110 161 318 321 22 156 171 163 167 145 130 129
157 156 153 150 156 158 169 165 175 166 167 145 141 137 144 143 160 167 145 148 170 151 157 160 102 150 162 291 298 274 229 222 224 194 255 267 270 208 161 151 137 122 115
155 153 150 147 152 160 169 166 164 174 173 148 151 156 173 162 164 161 136 152 172 175 181 147 187 156 185 287 299 307 277 232 218 220 235 240 241 255 176 145 136 139 137